Location: Cointrin
(46.2167°N, 6.1167°E)
Time: 20:22:30
(UTC+00:00)

Cosmos 44 Rocket - Visible Passes

Search period start: 13 September 2024 00:00
Search period end: 23 September 2024 00:00
Orbit: 649 x 733 km, 65.1° (Epoch: 12 September)

Date Brightness Start Highest point End Pass type
(mag) Time Alt. Az. Time Alt. Az. Time Alt. Az.
13 Sep 5.4 19:10:09 10° WNW 19:13:51 23° WSW 19:17:30 10° SSW visible
14 Sep 4.0 18:08:41 10° NW 18:13:19 56° WSW 18:17:53 10° SSE visible
15 Sep 5.8 18:50:12 10° WNW 18:53:28 19° WSW 18:56:41 10° SSW visible
17 Sep 6.1 18:30:23 10° WNW 18:33:02 15° WSW 18:35:41 10° SW visible
19 Sep 6.4 18:10:51 10° W 18:12:36 12° WSW 18:14:20 10° SW visible
